FW5487 Weather Reports


Display with metric or nautical units.
time (UTC)temp
F
wind
direction
speed
MPH
gust
MPH
rain 1hr
in
rain 24hr
in
rain mn
in
humidity
%
barometer
mb
20260901171704 95 219 4.0 7.0 0.00 0.00 0.00 42 1000.0
20260901170704 95 220 5.0 8.0 0.00 0.00 0.00 43 1000.0
20260901170204 94 216 5.0 8.0 0.00 0.00 0.00 43 1000.0
20260901165703 94 183 2.0 7.0 0.00 0.00 0.00 44 1000.0
20260901165204 93 194 5.0 6.0 0.00 0.00 0.00 44 1000.0
20260901164707 93 191 7.0 12.0 0.00 0.00 0.00 44 1000.0
20260901163704 93 207 4.0 8.0 0.00 0.00 0.00 45 1000.0
20260901163203 92 217 5.0 8.0 0.00 0.00 0.00 46 1000.0
20260901162704 93 195 5.0 9.0 0.00 0.00 0.00 46 1000.0
20260901162203 92 207 4.0 12.0 0.00 0.00 0.00 47 1000.0
20260901161704 92 242 4.0 10.0 0.00 0.00 0.00 47 1000.0
20260901161204 91 187 5.0 9.0 0.00 0.00 0.00 48 1000.0
20260901160203 91 206 5.0 9.0 0.00 0.00 0.00 48 1000.0
20260901155704 91 225 5.0 9.0 0.00 0.00 0.00 48 1000.0
20260901155204 91 192 4.0 7.0 0.00 0.00 0.00 49 1000.0
20260901154704 90 202 7.0 10.0 0.00 0.00 0.00 50 1000.0
20260901154204 89 162 8.0 14.0 0.00 0.00 0.00 50 1000.0
20260901153704 89 151 4.0 10.0 0.00 0.00 0.00 51 1000.0
20260901152703 88 203 8.0 12.0 0.00 0.00 0.00 51 1000.0
20260901152204 88 215 8.0 13.0 0.00 0.00 0.00 52 1000.0
20260901151704 87 241 6.0 10.0 0.00 0.00 0.00 53 1000.0
20260901151203 87 201 6.0 9.0 0.00 0.00 0.00 54 1000.0
20260901150703 87 253 4.0 9.0 0.00 0.00 0.00 55 1000.0
20260901150203 86 208 7.0 10.0 0.00 0.00 0.00 55 1000.0
20260901145704 86 198 7.0 10.0 0.00 0.00 0.00 56 1000.0
20260901145204 86 211 5.0 9.0 0.00 0.00 0.00 57 1000.0
20260901144703 85 207 5.0 9.0 0.00 0.00 0.00 57 1000.0
20260901144204 85 191 6.0 10.0 0.00 0.00 0.00 56 1000.0
20260901143704 86 205 4.0 9.0 0.00 0.00 0.00 56 1000.0
20260901142703 85 214 6.0 12.0 0.00 0.00 0.00 56 1000.0
20260901142203 85 174 6.0 10.0 0.00 0.00 0.00 57 1000.0
20260901141703 85 194 5.0 12.0 0.00 0.00 0.00 58 1000.0
20260901140703 84 192 6.0 10.0 0.00 0.00 0.00 59 1000.0
20260901140204 83 197 7.0 12.0 0.00 0.00 0.00 59 1000.0
20260901135704 83 190 8.0 13.0 0.00 0.00 0.00 59 1000.0
20260901135203 83 193 8.0 13.0 0.00 0.00 0.00 60 1000.0
20260901134203 83 199 8.0 12.0 0.00 0.00 0.00 60 1000.0
20260901133704 83 200 6.0 12.0 0.00 0.00 0.00 60 1000.0
20260901133203 83 192 6.0 9.0 0.00 0.00 0.00 61 1000.0
20260901132704 82 167 3.0 7.0 0.00 0.00 0.00 65 1000.0
20260901132204 82 182 3.0 6.0 0.00 0.00 0.00 68 1000.0
20260901131704 82 189 3.0 6.0 0.00 0.00 0.00 67 1000.0
20260901130704 82 208 4.0 7.0 0.00 0.00 0.00 63 1000.0
20260901130204 81 193 4.0 7.0 0.00 0.00 0.00 66 1000.0
20260901125704 80 197 1.0 6.0 0.00 0.00 0.00 70 1000.0
20260901124703 79 197 1.0 2.0 0.00 0.00 0.00 73 1000.0
20260901124204 78 146 2.0 2.0 0.00 0.00 0.00 75 1000.0
20260901123703 78 129 2.0 3.0 0.00 0.00 0.00 77 1000.0
20260901123204 77 139 3.0 5.0 0.00 0.00 0.00 78 1000.0
20260901122704 78 136 4.0 6.0 0.00 0.00 0.00 77 1000.0
20260901122203 77 136 3.0 5.0 0.00 0.00 0.00 77 1000.0
20260901121704 77 149 3.0 7.0 0.00 0.00 0.00 77 1000.0
20260901120704 78 140 3.0 5.0 0.00 0.00 0.00 76 1000.0
20260901115704 79 158 4.0 6.0 0.00 0.00 0.00 70 1000.0
20260901115204 79 174 5.0 7.0 0.00 0.00 0.00 69 1000.0
20260901114703 79 184 4.0 8.0 0.00 0.00 0.00 70 1000.0
20260901114204 79 159 3.0 5.0 0.00 0.00 0.00 70 1000.0
20260901113704 79 169 3.0 6.0 0.00 0.00 0.00 70 1000.0
20260901113204 79 164 5.0 7.0 0.00 0.00 0.00 70 1000.0
20260901112704 79 139 3.0 6.0 0.00 0.00 0.00 72 1000.0
20260901112203 78 183 4.0 7.0 0.00 0.00 0.00 73 1000.0
20260901111704 77 161 4.0 6.0 0.00 0.00 0.00 76 1000.0
20260901110704 77 138 5.0 12.0 0.00 0.00 0.00 77 1000.0
20260901110204 77 131 4.0 6.0 0.00 0.00 0.00 77 1000.0
20260901105203 77 142 3.0 6.0 0.00 0.00 0.00 77 1000.0
20260901104704 77 122 3.0 5.0 0.00 0.00 0.00 77 1000.0
20260901104203 78 139 3.0 5.0 0.00 0.00 0.00 75 1000.0
20260901103704 78 127 4.0 5.0 0.00 0.00 0.00 74 1000.0
20260901103203 78 138 2.0 3.0 0.00 0.00 0.00 71 1000.0
20260901102704 79 129 3.0 3.0 0.00 0.00 0.00 70 1000.0
20260901101704 80 162 2.0 3.0 0.00 0.00 0.00 65 1000.0
20260901101204 80 134 2.0 5.0 0.00 0.00 0.00 62 1000.0
20260901100703 81 141 2.0 3.0 0.00 0.00 0.00 60 1000.0
20260901100204 81 193 2.0 3.0 0.00 0.00 0.00 59 1000.0
20260901095704 82 212 2.0 3.0 0.00 0.00 0.00 59 1000.0
20260901095203 81 151 2.0 5.0 0.00 0.00 0.00 59 1000.0
20260901094204 81 212 3.0 7.0 0.00 0.00 0.00 60 1000.0
20260901093204 81 160 2.0 3.0 0.00 0.00 0.00 60 1000.0
20260901092204 82 178 5.0 8.0 0.00 0.00 0.00 58 1000.0
20260901091704 82 183 5.0 7.0 0.00 0.00 0.00 58 1000.0
20260901091203 82 185 6.0 9.0 0.00 0.00 0.00 57 1000.0
20260901090203 82 196 7.0 9.0 0.00 0.00 0.00 57 1000.0
20260901085704 82 193 6.0 9.0 0.00 0.00 0.00 57 1000.0
20260901085204 82 192 5.0 8.0 0.00 0.00 0.00 57 1000.0
20260901084703 82 199 5.0 8.0 0.00 0.00 0.00 57 1000.0
20260901084204 82 190 5.0 8.0 0.00 0.00 0.00 58 1000.0
20260901083203 82 185 5.0 7.0 0.00 0.00 0.00 56 1000.0
20260901082704 82 170 4.0 7.0 0.00 0.00 0.00 56 1000.0
20260901082204 82 179 5.0 6.0 0.00 0.00 0.00 56 1000.0
20260901081703 83 175 5.0 8.0 0.00 0.00 0.00 55 1000.0
20260901080703 83 187 6.0 8.0 0.00 0.00 0.00 55 1000.0
20260901080203 83 187 5.0 8.0 0.00 0.00 0.00 55 1000.0
20260901075704 83 186 5.0 8.0 0.00 0.00 0.00 54 1000.0
20260901075203 83 181 6.0 8.0 0.00 0.00 0.00 54 1000.0
20260901074704 83 182 6.0 8.0 0.00 0.00 0.00 55 1000.0
20260901074203 83 184 5.0 8.0 0.00 0.00 0.00 55 1000.0
20260901073704 82 183 4.0 6.0 0.00 0.00 0.00 57 1000.0
20260901073204 82 184 4.0 6.0 0.00 0.00 0.00 58 1000.0
20260901072704 82 162 3.0 5.0 0.00 0.00 0.00 59 1000.0
20260901072203 82 174 3.0 5.0 0.00 0.00 0.00 60 1000.0
20260901071704 82 148 4.0 6.0 0.00 0.00 0.00 60 1000.0
20260901071203 82 141 5.0 6.0 0.00 0.00 0.00 60 1000.0
20260901070704 82 141 5.0 6.0 0.00 0.00 0.00 60 1000.0
20260901070204 82 138 5.0 5.0 0.00 0.00 0.00 61 1000.0
20260901064704 84 141 5.0 7.0 0.00 0.00 0.00 54 1000.0
20260901064204 85 176 5.0 7.0 0.00 0.00 0.00 50 1000.0
20260901063704 86 190 6.0 7.0 0.00 0.00 0.00 49 1000.0
20260901063203 86 190 6.0 12.0 0.00 0.00 0.00 49 1000.0
20260901062703 86 197 5.0 10.0 0.00 0.00 0.00 49 1000.0
20260901062204 86 200 5.0 8.0 0.00 0.00 0.00 48 1000.0
20260901061704 86 202 6.0 8.0 0.00 0.00 0.00 48 1000.0
20260901061204 86 190 7.0 9.0 0.00 0.00 0.00 48 1000.0
20260901060703 86 212 5.0 7.0 0.00 0.00 0.00 48 1000.0
20260901060204 87 198 4.0 6.0 0.00 0.00 0.00 48 1000.0
20260901055703 87 205 5.0 7.0 0.00 0.00 0.00 47 1000.0
20260901055203 87 201 5.0 8.0 0.00 0.00 0.00 47 1000.0
20260901054704 87 199 5.0 8.0 0.00 0.00 0.00 47 1000.0
20260901053704 87 201 6.0 10.0 0.00 0.00 0.00 46 1000.0
20260901053204 87 189 9.0 14.0 0.00 0.00 0.00 46 1000.0
20260901052704 87 185 9.0 14.0 0.00 0.00 0.00 45 1000.0
20260901052204 87 190 10.0 14.0 0.00 0.00 0.00 45 1000.0
20260901051704 87 188 10.0 16.0 0.00 0.00 0.00 45 1000.0
20260901051204 87 177 10.0 15.0 0.00 0.00 0.00 45 1000.0
20260901050703 88 178 11.0 14.0 0.00 0.00 0.00 44 1000.0
20260901050204 88 187 10.0 13.0 0.00 0.00 0.00 44 1000.0
20260901045704 88 179 8.0 13.0 0.00 0.00 0.00 44 1000.0
20260901045203 88 183 6.0 9.0 0.00 0.00 0.00 44 1000.0
20260901044703 88 173 7.0 12.0 0.00 0.00 0.00 45 1000.0
20260901044203 88 188 6.0 8.0 0.00 0.00 0.00 45 1000.0
20260901043703 88 170 6.0 9.0 0.00 0.00 0.00 45 1000.0
20260901043204 88 179 6.0 10.0 0.00 0.00 0.00 45 1000.0
20260901042204 87 168 6.0 8.0 0.00 0.00 0.00 46 1000.0
20260901041704 87 161 6.0 9.0 0.00 0.00 0.00 47 1000.0
20260901041203 87 165 5.0 10.0 0.00 0.00 0.00 48 1000.0
20260901040704 87 148 5.0 6.0 0.00 0.00 0.00 49 1000.0
20260901040204 87 151 5.0 7.0 0.00 0.00 0.00 47 1000.0
20260901035704 88 135 5.0 7.0 0.00 0.00 0.00 45 1000.0
20260901034704 89 165 7.0 12.0 0.00 0.00 0.00 43 1000.0
20260901034203 89 179 7.0 9.0 0.00 0.00 0.00 43 1000.0
20260901033703 89 174 6.0 12.0 0.00 0.00 0.00 43 1000.0
20260901033204 89 182 7.0 10.0 0.00 0.00 0.00 43 1000.0
20260901032203 88 169 6.0 8.0 0.00 0.00 0.00 46 1000.0
20260901031704 88 170 5.0 7.0 0.00 0.00 0.00 46 1000.0
20260901031204 89 129 6.0 8.0 0.00 0.00 0.00 44 1000.0
20260901030704 90 146 6.0 8.0 0.00 0.00 0.00 41 1000.0
20260901030204 91 168 5.0 8.0 0.00 0.00 0.00 40 1000.0
20260901025703 91 175 6.0 8.0 0.00 0.00 0.00 40 1000.0
20260901025203 91 177 6.0 9.0 0.00 0.00 0.00 39 1000.0
20260901024703 91 169 6.0 8.0 0.00 0.00 0.00 39 1000.0
20260901024205 92 169 7.0 9.0 0.00 0.00 0.00 39 1000.0
20260901023703 92 172 7.0 10.0 0.00 0.00 0.00 39 1000.0
20260901022704 92 175 6.0 9.0 0.00 0.00 0.00 38 1000.0
20260901022204 92 168 6.0 8.0 0.00 0.00 0.00 38 1000.0
20260901021204 92 182 6.0 8.0 0.00 0.00 0.00 37 1000.0
20260901020704 92 174 6.0 9.0 0.00 0.00 0.00 37 1000.0
20260901015704 93 174 7.0 9.0 0.00 0.00 0.00 36 1000.0
20260901015204 93 179 6.0 9.0 0.00 0.00 0.00 36 1000.0
20260901014704 93 142 6.0 8.0 0.00 0.00 0.00 36 1000.0
20260901013704 93 169 5.0 8.0 0.00 0.00 0.00 35 1000.0
20260901013204 93 176 6.0 9.0 0.00 0.00 0.00 35 1000.0
20260901012204 93 169 6.0 8.0 0.00 0.00 0.00 34 1000.0
20260901011704 94 169 5.0 7.0 0.00 0.00 0.00 33 1000.0
20260901010703 94 164 5.0 8.0 0.00 0.00 0.00 32 1000.0
20260901010203 94 167 6.0 8.0 0.00 0.00 0.00 32 1000.0
20260901005704 95 169 5.0 8.0 0.00 0.00 0.00 31 1000.0
20260901005204 95 178 3.0 7.0 0.00 0.00 0.00 30 1000.0
20260901004704 95 182 3.0 7.0 0.00 0.00 0.00 30 1000.0
20260901004204 96 177 5.0 8.0 0.00 0.00 0.00 29 1000.0
20260901003204 96 152 6.0 8.0 0.00 0.00 0.00 28 1000.0
20260901002703 97 159 5.0 8.0 0.00 0.00 0.00 28 1000.0
20260901002204 97 168 5.0 6.0 0.00 0.00 0.00 27 1000.0
20260901001703 97 164 5.0 7.0 0.00 0.00 0.00 27 1000.0
20260901001203 97 180 6.0 8.0 0.00 0.00 0.00 26 1000.0
20260901000703 98 175 5.0 8.0 0.00 0.00 0.00 26 1000.0
20260901000204 98 172 6.0 12.0 0.00 0.00 0.00 26 1000.0
20260831235704 98 172 6.0 9.0 0.00 0.00 0.00 26 1000.0
20260831235204 98 179 8.0 13.0 0.00 0.00 0.00 26 1000.0
20260831234704 99 168 5.0 9.0 0.00 0.00 0.00 26 1000.0
20260831234204 99 181 6.0 9.0 0.00 0.00 0.00 26 1000.0
20260831233703 99 176 7.0 12.0 0.00 0.00 0.00 26 1000.0
20260831233204 99 149 7.0 13.0 0.00 0.00 0.00 26 1000.0
20260831232704 100 146 7.0 12.0 0.00 0.00 0.00 26 1000.0
20260831232204 100 158 7.0 10.0 0.00 0.00 0.00 26 1000.0
20260831231203 100 181 7.0 13.0 0.00 0.00 0.00 26 1000.0
20260831225704 101 191 5.0 12.0 0.00 0.00 0.00 25 1000.0
20260831225203 101 200 7.0 13.0 0.00 0.00 0.00 24 1000.0
20260831224704 101 220 7.0 13.0 0.00 0.00 0.00 24 1000.0
20260831224204 101 239 3.0 9.0 0.00 0.00 0.00 24 1000.0
20260831223703 101 195 6.0 9.0 0.00 0.00 0.00 24 1000.0
20260831223204 101 243 4.0 9.0 0.00 0.00 0.00 23 1000.0
20260831222704 101 197 8.0 12.0 0.00 0.00 0.00 23 1000.0
20260831222203 101 192 7.0 14.0 0.00 0.00 0.00 22 1000.0
20260831221703 102 194 6.0 13.0 0.00 0.00 0.00 23 1000.0
20260831221204 102 234 5.0 9.0 0.00 0.00 0.00 23 1000.0
20260831220204 102 208 4.0 12.0 0.00 0.00 0.00 23 1000.0
20260831215704 101 187 7.0 12.0 0.00 0.00 0.00 22 1000.0
20260831215204 102 208 3.0 10.0 0.00 0.00 0.00 22 1000.0
20260831213704 101 201 9.0 15.0 0.00 0.00 0.00 23 1000.0
20260831213204 101 188 10.0 16.0 0.00 0.00 0.00 23 1000.0
20260831212703 101 199 10.0 15.0 0.00 0.00 0.00 23 1000.0
20260831212204 102 232 6.0 15.0 0.00 0.00 0.00 23 1000.0
20260831211704 101 191 10.0 16.0 0.00 0.00 0.00 23 1000.0
20260831211204 102 228 3.0 9.0 0.00 0.00 0.00 23 1000.0
20260831210703 101 219 7.0 12.0 0.00 0.00 0.00 23 1000.0
20260831210203 101 176 9.0 15.0 0.00 0.00 0.00 23 1000.0
20260831205704 101 187 9.0 16.0 0.00 0.00 0.00 23 1000.0
20260831203204 101 159 9.0 14.0 0.00 0.00 0.00 24 1000.0
20260831202704 101 168 9.0 17.0 0.00 0.00 0.00 24 1000.0
20260831202203 101 188 6.0 12.0 0.00 0.00 0.00 24 1000.0
20260831201703 101 172 6.0 13.0 0.00 0.00 0.00 24 1000.0
20260831201203 101 132 10.0 16.0 0.00 0.00 0.00 23 1000.0
20260831200703 102 150 3.0 10.0 0.00 0.00 0.00 23 1000.0
20260831200204 102 178 1.0 10.0 0.00 0.00 0.00 24 1000.0
20260831195704 102 232 6.0 13.0 0.00 0.00 0.00 25 1000.0
20260831195204 101 178 6.0 13.0 0.00 0.00 0.00 23 1000.0
20260831194704 101 194 7.0 17.0 0.00 0.00 0.00 24 1000.0
20260831194204 101 205 2.0 8.0 0.00 0.00 0.00 26 1000.0
20260831193703 100 176 7.0 14.0 0.00 0.00 0.00 25 1000.0
20260831193204 101 199 7.0 14.0 0.00 0.00 0.00 25 1000.0
20260831192704 101 281 6.0 10.0 0.00 0.00 0.00 25 1000.0
20260831192203 101 198 6.0 8.0 0.00 0.00 0.00 26 1000.0
20260831191204 100 196 8.0 14.0 0.00 0.00 0.00 27 1000.0
20260831190703 101 230 6.0 13.0 0.00 0.00 0.00 27 1000.0
20260831190204 101 255 4.0 10.0 0.00 0.00 0.00 27 1000.0
20260831185204 100 186 4.0 9.0 0.00 0.00 0.00 28 1000.0
20260831184704 100 212 5.0 13.0 0.00 0.00 0.00 27 1000.0
20260831184203 101 236 5.0 10.0 0.00 0.00 0.00 27 1000.0
20260831183704 100 218 8.0 13.0 0.00 0.00 0.00 27 1000.0
20260831183204 101 256 3.0 7.0 0.00 0.00 0.00 28 1000.0
20260831182704 100 223 5.0 10.0 0.00 0.00 0.00 28 1000.0
20260831182204 100 227 7.0 13.0 0.00 0.00 0.00 28 1000.0
20260831181204 99 193 6.0 9.0 0.00 0.00 0.00 30 1000.0
20260831180703 99 215 5.0 12.0 0.00 0.00 0.00 30 1000.0
20260831175704 98 191 8.0 13.0 0.00 0.00 0.00 32 1000.0
20260831174704 97 200 9.0 17.0 0.00 0.00 0.00 33 1000.0
20260831174204 97 201 9.0 14.0 0.00 0.00 0.00 32 1000.0
20260831172703 96 188 9.0 15.0 0.00 0.00 0.00 34 1000.0
20260831172204 96 222 8.0 13.0 0.00 0.00 0.00 34 1000.0